Regional Weather Roundup
Issued by NWS

Home | Current Version | Previous Version | Graphics & Text | Print | Product List | Glossary On
Versions: 1 2 3 4 5 6 7 8 9 10 11 12 13 14 15 16 17 18 19 20 21 22 23 24 25 26 27 28 29 30 31 32 33 34 35 36 37 38 39 40 41 42 43 44 45 46 47 48 49 50
000
ASUS45 KPSR 010110
RWRAZ

ARIZONA HOURLY REGIONAL WEATHER ROUNDUP
NATIONAL WEATHER SERVICE PHOENIX AZ
600 PM MST TUE JUN 30 2015

NOTE: FAIR INDICATES FEW OR NO CLOUDS BELOW 12,000 FEET WITH NO
SIGNIFICANT WEATHER AND/OR OBSTRUCTIONS TO VISIBILITY.

AZZ001>003-036-010200-
NORTHWEST ARIZONA

CITY           SKY/WX    TMP DP  RH WIND       PRES   REMARKS
BULLHEAD CITY  PTSUNNY  109  55  17 S16G24    29.67R HX 108
KINGMAN        CLOUDY    98  53  22 SW15      29.92S
$$

AZZ004>008-015-016-018-010200-
NORTH CENTRAL ARIZONA

CITY           SKY/WX    TMP DP  RH WIND       PRES   REMARKS
GRAND CANYON   PTSUNNY   89  42  19 N3        30.16F
WILLIAMS       CLOUDY    81  50  34 SW14G23   30.25F
PRESCOTT       CLOUDY    86  56  35 SW10      30.07S
FLAGSTAFF      CLOUDY    77  53  43 SW5       30.24S
PAYSON         CLOUDY    75  64  69 NW6       30.08F THUNDER
PAGE           MOSUNNY  102  37  10 N6        29.92S
$$

AZZ009>014-017-010200-
NORTHEAST ARIZONA

CITY           SKY/WX    TMP DP  RH WIND       PRES   REMARKS
WINSLOW        CLOUDY    97  41  14 N13       29.98S
SAINT JOHNS    CLOUDY    79  57  46 NW7       30.05S
WINDOW ROCK    FAIR      91  34  13 NE9G17    30.15F
SHOW LOW       TSTM      68  57  68 S9        30.18R
$$

AZZ023-010200-
GREATER PHOENIX AREA

CITY           SKY/WX    TMP DP  RH WIND       PRES   REMARKS
PHOENIX        PTSUNNY  104  58  21 W15       29.72S HX 104
BUCKEYE        MOSUNNY  104  57  21 SW14G22   29.73S HX 103
GLENDALE       MOSUNNY  106  57  20 S15G21    29.73S HX 105
LUKE AFB       CLOUDY   104  59  22 SW15      29.70S HX 104
DEER VALLEY    CLOUDY   102  56  21 SW8       29.74S HX 101
SCOTTSDALE     CLOUDY   102  59  24 W12       29.75F HX 102
MESA-FALCON    PTSUNNY  100  61  27 W14       29.74  HX 101
MESA-GATEWAY   PTSUNNY  100  61  27 NW12G20   29.77F HX 101
CHANDLER       PTSUNNY  102  59  24 W10       29.74  HX 102
$$

AZZ027-028-010200-
SOUTHWEST MARICOPA COUNTY AND PINAL COUNTY

CITY           SKY/WX    TMP DP  RH WIND       PRES   REMARKS
CASA GRANDE    PTSUNNY   99  61  28 W16       29.76S
GILA BEND      MOSUNNY  101  59  24 W13       29.73F HX 101
$$

AZZ503-504-507>509-010200-
SOUTHEAST ARIZONA

CITY           SKY/WX    TMP DP  RH WIND       PRES   REMARKS
TUCSON         PTSUNNY   87  63  44 N26G41    29.87R
DAVIS-MONTHAN  MOSUNNY   90  62  39 NW22      29.86R
RYAN FIELD     HVY RAIN  99  63  30 NE9G30    29.88R HX 100
NOGALES        CLOUDY    78  66  66 SE7       29.97R
SIERRA VISTA   PTSUNNY   73  55  53 SW14      30.01R THUNDER
DOUGLAS        MOSUNNY   94  43  17 E16       29.93R
SAFFORD        PTSUNNY   99  50  19 NW8       29.82F
$$

AZZ020-021-025-026-031-010200-
SOUTHWEST ARIZONA

CITY           SKY/WX    TMP DP  RH WIND       PRES   REMARKS
YUMA           MOSUNNY  102  62  26 SW7       29.71F HX 104
$$

CAZ031-033-041-043-047-048-061-010200-
SOUTHERN CALIFORNIA

CITY           SKY/WX    TMP DP  RH WIND       PRES   REMARKS
DOWNTOWN L.A.  CLOUDY    82  53  36 CALM      29.85F
L.A. AIRPORT   CLOUDY    75  64  68 NW5       29.85F
SAN DIEGO      PTSUNNY   78  67  68 NW7       29.81F
BURBANK        CLOUDY    84  46  26 NW3       29.87F
ONTARIO        CLOUDY    86  52  30 SW12      29.86F
RIVERSIDE      PTSUNNY   87  51  28 W9        29.87F
PALM SPRINGS   MOSUNNY  104  60  23 NW18G24   29.73F HX 105
EL CENTRO NAS  MOSUNNY  103  57  21 VRB6      29.71F HX 102
IMPERIAL       SUNNY    102  58  23 W6        29.69F HX 102
BLYTHE         SUNNY    107  58  20 SW14      29.69F HX 107
NEEDLES        MOSUNNY  111  53  14 SW9       29.69F HX 109
$$

NVZ020-UTZ003-010200-
SOUTHERN NEVADA-UTAH

CITY           SKY/WX    TMP DP  RH WIND       PRES   REMARKS
LAS VEGAS      FAIR     110  47  12 SW12      29.71F HX 106
SALT LAKE CITY PTSUNNY   99  48  17 N7        29.95S
$$

NMZ009-TXZ055-010200-
NEW MEXICO-WEST TEXAS

CITY           SKY/WX    TMP DP  RH WIND       PRES   REMARKS
ALBUQUERQUE    MOSUNNY   92  46  20 W8        30.05F
EL PASO        PTSUNNY   91  48  22 SE14G22   29.99S
$$


........................KEY........................
SKY/WX - SKY CONDITION/WEATHER
TMP    - TEMPERATURE IN FAHRENHEIT
DP     - DEW POINT IN FAHRENHEIT
RH     - RELATIVE HUMIDITY IN PERCENT
WIND   - DIRECTION AND SPEED IN MILES PER HOUR (MPH)
VRB    - VARIABLE WIND DIRECTION
PRES   - MEAN SEA LEVEL PRESSURE IN INCHES OF MERCURY
         F - FALLING PRESSURE   R - RISING PRESSURE
         S - STEADY PRESSURE
VSB    - VISIBILITY IN MILES
HX     - HEAT INDEX IN FAHRENHEIT
WCI    - WIND CHILL INDEX IN FAHRENHEIT
TC     - TEMPERATURE IN CELSIUS WHICH IS ALSO KNOWN AS
         TEMPERATURE IN CENTIGRADE
AFB    - AIR FORCE BASE
         LUKE AFB IS LUKE AIR FORCE BASE
         DAVIS-MONTHAN IS DAVIS-MONTHAN AIR FORCE BASE
NAS    - NAVAL AIR STATION
         EL CENTRO NAS IS EL CENTRO NAVAL AIR STATION
N/A    - NOT AVAILABLE




USA.gov is the U.S. government's official web portal to all federal, state and local government web resources and services.